Showing default

METEOR 2-11, 15099

Orbit data source: Space-Track

METEOR 2-11, 15099 is a Commonwealth of Independent States-origin payload satellite in LEO that was launched on Thu, 05 Jul 1984 UTC via a TSIKLON-3 launch vehicle from the Plesetsk Missile And Space Complex (PKMTR). Payloads include a variety of satellites, spacecraft, and rockets equipped with specific instruments for various scientific and technological missions. These include communications satellites like Starlink; space stations such as the ISS; scientific satellites like the Hubble; Earth observation satellites from companies like Planet Labs, Umbra, and HawkEye 360; GPS; miniature CubeSats for education and research; and military/defense satellites.

Loading next visibility...
METEOR 2-11 details
Identifier
15099, 1984-072A
Orbit
LEO
Last TLE update12 hours ago
Origin
Flag of CISGUKOS/GMS (CIS)
ManufacturerVNIIEM
MissionCivil Weather
Bus & MotorMETEOR-2, Unknown motor
Mass~1,500 kg wet, ~1,500 kg dry
Launch date (UTC)
1984-07-05 (40 years ago)
Launch vehicle
TSIKLON-3
Launch site
Plesetsk Missile And Space Complex (PKMTR)
Object type
Payload
Rocket body
Debris
Shape & HBRCyl + 2 Pan, 4.5 m
Radar Cross Section5.718 m², Large (>1 m²)

Expand to show TLE details & history

TLE from 12 hours ago
0 METEOR 2-11
1 15099U 84072A   24361.23298466  .00000098  00000-0  72896-4 0  9994
2 15099  82.5311 108.2069 0013828 157.2570 202.9207 13.85232847 45869
Epoch: 2024-12-26T05:35Z
Definitive object data (Epoch: 2024-12-26T05:35:29.874Z)
Latitude0.00004°
Longitude-70.88289°
Altitude957.619 km
Speed7.368 km/s
True Right ascension07h 12m 49s
True Declination0° 00' 00"
Sunlit
Object was in full shadow at TLE epoch
Visualization TLE readout
Latitude61.16561°
Longitude-57.59279°
Altitude956.49 km
Speed7.379 km/s
Apparent Right ascension06h 31m 24s
Apparent Declination16° 22' 19"
Sunlit
Object is in full shadow
Visualization observer readout
Local Sidereal Time17:23:54
Azimuth340.924° N
Elevation-31.556°
Doppler factor1
Orbital elements
Apogee altitude952.659 km
Perigee altitude932.413 km
Semi-major axis7,320.673 km
Eccentricity0.0013828
Inclination82.5311°
RAAN108.2069°
Arg. of periapsis157.257°
True anomaly202.85909°
Mean anomaly202.9207°
Eccentric anomaly202.88988°
Mean motion3.46511 °/min
BSTAR0.000072896
Orbital period103.89 mins
Loading maneuver chart data...
Loading historical data...
Loading historical data...
Loading historical data...
Loading historical data...
Loading historical data...
Loading historical data...
Loading historical data...

METEOR 2-11 Visibility forecast

Observer location: undefined°, undefined

Span
Click to sort rows by Start time (UTC) header in descending order
Start Az.
Max El. time (UTC)
Max El. Az.
Max El.
End time (UTC)
End Az.
9 mins2024-12-26 18:18:29.014Z16.298° NNE2024-12-26 18:23:29.014Z77.964° E26.035°2024-12-26 18:27:29.014Z127.248° SE
9 mins2024-12-26 20:04:29.014Z325.668° NNW2024-12-26 20:08:29.014Z260.548° W31.32°2024-12-26 20:13:29.014Z205.026° SW
10 mins2024-12-27 07:42:29.014Z167.926° S2024-12-27 07:47:29.014Z81.042° E40.569°2024-12-27 07:52:29.014Z16.78° NNE
7 mins2024-12-27 09:29:29.014Z256.394° W2024-12-27 09:32:29.014Z291.315° WNW18.633°2024-12-27 09:36:29.014Z334.236° NNW
|